Time,TemperatureF,DewpointF,PressureIn,WindDirection,WindDirectionDegrees,WindSpeedMPH,WindSpeedGustMPH,Humidity,HourlyPrecipIn,Conditions,Clouds,dailyrainin,SoftwareType,DateUTC
2013-05-11 00:13:00,43.1,41.0,29.85,NNW,348,2.0,8.0,92,0.00,,,0.00,weatherlink.com 1.10,2013-05-11 04:13:00,
2013-05-11 00:28:00,43.4,41.0,29.85,NNW,337,5.0,9.0,91,0.00,,,0.00,weatherlink.com 1.10,2013-05-11 04:28:00,
2013-05-11 00:43:00,43.3,41.0,29.85,North,355,3.0,7.0,91,0.00,,,0.00,weatherlink.com 1.10,2013-05-11 04:43:00,
2013-05-11 00:58:00,43.3,41.0,29.84,NNW,338,2.0,9.0,91,0.00,,,0.00,weatherlink.com 1.10,2013-05-11 04:58:00,
2013-05-11 01:13:00,43.3,41.0,29.84,North,355,7.0,8.0,91,0.00,,,0.00,weatherlink.com 1.10,2013-05-11 05:13:00,
2013-05-11 01:28:00,43.3,41.0,29.84,NNW,347,3.0,7.0,91,0.00,,,0.00,weatherlink.com 1.10,2013-05-11 05:28:00,
2013-05-11 01:43:00,43.3,41.0,29.84,NNE,24,2.0,9.0,92,0.00,,,0.00,weatherlink.com 1.10,2013-05-11 05:43:00,
2013-05-11 01:58:00,43.1,41.0,29.83,NW,323,4.0,7.0,93,0.00,,,0.00,weatherlink.com 1.10,2013-05-11 05:58:00,
2013-05-11 02:13:00,43.3,42.0,29.84,NNW,343,1.0,8.0,93,0.00,,,0.00,weatherlink.com 1.10,2013-05-11 06:13:00,
2013-05-11 02:28:00,43.1,41.0,29.84,NW,323,3.0,10.0,93,0.00,,,0.00,weatherlink.com 1.10,2013-05-11 06:28:00,
2013-05-11 02:43:00,42.9,41.0,29.84,NNW,346,5.0,10.0,94,0.00,,,0.00,weatherlink.com 1.10,2013-05-11 06:43:00,
2013-05-11 02:58:00,43.3,42.0,29.85,NW,319,4.0,6.0,94,0.00,,,0.00,weatherlink.com 1.10,2013-05-11 06:58:00,
2013-05-11 03:13:00,43.3,42.0,29.85,WNW,302,3.0,7.0,93,0.00,,,0.00,weatherlink.com 1.10,2013-05-11 07:13:00,
2013-05-11 03:28:00,43.4,42.0,29.85,NNW,336,1.0,6.0,93,0.00,,,0.00,weatherlink.com 1.10,2013-05-11 07:28:00,
2013-05-11 03:43:00,43.6,42.0,29.85,West,268,2.0,6.0,93,0.00,,,0.00,weatherlink.com 1.10,2013-05-11 07:43:00,
2013-05-11 03:58:00,43.4,41.0,29.86,NW,319,4.0,7.0,92,0.00,,,0.00,weatherlink.com 1.10,2013-05-11 07:58:00,
2013-05-11 04:13:00,43.5,42.0,29.86,NW,308,2.0,5.0,93,0.00,,,0.00,weatherlink.com 1.10,2013-05-11 08:13:00,
2013-05-11 04:28:00,43.7,42.0,29.86,NNW,344,2.0,4.0,93,0.00,,,0.00,weatherlink.com 1.10,2013-05-11 08:28:00,
2013-05-11 04:43:00,43.6,41.0,29.86,NNE,12,4.0,6.0,91,0.00,,,0.00,weatherlink.com 1.10,2013-05-11 08:43:00,
2013-05-11 04:58:00,43.7,41.0,29.86,NNW,338,2.0,6.0,91,0.00,,,0.00,weatherlink.com 1.10,2013-05-11 08:58:00,
2013-05-11 05:13:00,43.9,42.0,29.86,NW,320,3.0,4.0,92,0.00,,,0.00,weatherlink.com 1.10,2013-05-11 09:13:00,
2013-05-11 05:28:00,43.5,41.0,29.86,NW,304,1.0,8.0,92,0.00,,,0.00,weatherlink.com 1.10,2013-05-11 09:28:00,
2013-05-11 05:43:00,43.3,41.0,29.85,NW,309,3.0,6.0,92,0.00,,,0.00,weatherlink.com 1.10,2013-05-11 09:43:00,
2013-05-11 05:58:00,43.4,42.0,29.86,NNW,345,3.0,7.0,93,0.00,,,0.00,weatherlink.com 1.10,2013-05-11 09:58:00,
2013-05-11 06:13:00,43.1,41.0,29.86,NW,306,3.0,8.0,93,0.00,,,0.00,weatherlink.com 1.10,2013-05-11 10:13:00,
2013-05-11 06:28:00,43.1,41.0,29.86,NNE,13,3.0,9.0,93,0.00,,,0.00,weatherlink.com 1.10,2013-05-11 10:28:00,
2013-05-11 06:43:00,42.9,41.0,29.86,North,355,6.0,12.0,93,0.00,,,0.00,weatherlink.com 1.10,2013-05-11 10:43:00,
2013-05-11 06:59:00,43.1,42.0,29.86,NW,315,5.0,7.0,94,0.00,,,0.00,weatherlink.com 1.10,2013-05-11 10:59:00,
2013-05-11 07:14:00,43.4,42.0,29.86,NW,325,3.0,7.0,94,0.00,,,0.00,weatherlink.com 1.10,2013-05-11 11:14:00,
2013-05-11 07:29:00,43.4,42.0,29.86,NW,321,3.0,6.0,93,0.00,,,0.00,weatherlink.com 1.10,2013-05-11 11:29:00,
2013-05-11 07:44:00,43.3,42.0,29.86,NW,326,4.0,8.0,93,0.00,,,0.00,weatherlink.com 1.10,2013-05-11 11:44:00,
2013-05-11 07:59:00,43.8,42.0,29.86,NW,321,1.0,7.0,93,0.00,,,0.00,weatherlink.com 1.10,2013-05-11 11:59:00,
2013-05-11 08:14:00,44.2,42.0,29.86,NW,315,5.0,6.0,92,0.00,,,0.00,weatherlink.com 1.10,2013-05-11 12:14:00,
2013-05-11 08:29:00,44.2,42.0,29.85,NNW,329,4.0,6.0,92,0.00,,,0.00,weatherlink.com 1.10,2013-05-11 12:29:00,
2013-05-11 08:44:00,44.7,43.0,29.85,NW,317,3.0,7.0,92,0.00,,,0.00,weatherlink.com 1.10,2013-05-11 12:44:00,
2013-05-11 08:59:00,45.1,43.0,29.85,NW,322,1.0,5.0,91,0.00,,,0.00,weatherlink.com 1.10,2013-05-11 12:59:00,
2013-05-11 09:14:00,45.9,44.0,29.85,NW,320,3.0,4.0,91,0.00,,,0.00,weatherlink.com 1.10,2013-05-11 13:14:00,
2013-05-11 09:29:00,46.0,43.0,29.86,NW,317,1.0,6.0,90,0.00,,,0.00,weatherlink.com 1.10,2013-05-11 13:29:00,
2013-05-11 09:44:00,46.1,44.0,29.85,WNW,292,2.0,6.0,91,0.00,,,0.00,weatherlink.com 1.10,2013-05-11 13:44:00,
2013-05-11 09:59:00,46.1,43.0,29.86,NW,319,3.0,7.0,90,0.00,,,0.00,weatherlink.com 1.10,2013-05-11 13:59:00,
2013-05-11 10:14:00,46.2,44.0,29.85,NW,325,4.0,7.0,91,0.00,,,0.00,weatherlink.com 1.10,2013-05-11 14:14:00,
2013-05-11 10:29:00,46.6,44.0,29.85,WNW,288,3.0,6.0,91,0.00,,,0.00,weatherlink.com 1.10,2013-05-11 14:29:00,
2013-05-11 10:44:00,47.1,44.0,29.85,NW,316,4.0,7.0,89,0.00,,,0.00,weatherlink.com 1.10,2013-05-11 14:44:00,
2013-05-11 10:59:00,47.6,44.0,29.84,WNW,289,1.0,7.0,87,0.00,,,0.00,weatherlink.com 1.10,2013-05-11 14:59:00,
2013-05-11 11:14:00,48.5,45.0,29.84,NW,317,2.0,7.0,87,0.00,,,0.00,weatherlink.com 1.10,2013-05-11 15:14:00,
2013-05-11 11:29:00,48.4,45.0,29.84,WNW,299,5.0,8.0,88,0.00,,,0.00,weatherlink.com 1.10,2013-05-11 15:29:00,
2013-05-11 11:44:00,48.8,45.0,29.84,NW,304,5.0,8.0,87,0.00,,,0.00,weatherlink.com 1.10,2013-05-11 15:44:00,
2013-05-11 11:59:00,49.3,45.0,29.84,WNW,286,3.0,6.0,86,0.00,,,0.00,weatherlink.com 1.10,2013-05-11 15:59:00,
2013-05-11 12:14:00,48.9,45.0,29.84,West,273,4.0,11.0,86,0.00,,,0.00,weatherlink.com 1.10,2013-05-11 16:14:00,
2013-05-11 12:29:00,48.8,45.0,29.84,West,274,6.0,9.0,87,0.00,,,0.00,weatherlink.com 1.10,2013-05-11 16:29:00,
2013-05-11 12:44:00,49.0,45.0,29.83,SW,221,3.0,7.0,85,0.00,,,0.00,weatherlink.com 1.10,2013-05-11 16:44:00,
2013-05-11 12:59:00,49.9,46.0,29.82,SW,215,3.0,8.0,85,0.00,,,0.00,weatherlink.com 1.10,2013-05-11 16:59:00,
2013-05-11 13:14:00,51.2,46.0,29.82,SW,230,7.0,10.0,82,0.00,,,0.00,weatherlink.com 1.10,2013-05-11 17:14:00,
2013-05-11 13:29:00,52.1,45.0,29.81,SSW,205,7.0,10.0,78,0.00,,,0.00,weatherlink.com 1.10,2013-05-11 17:29:00,
2013-05-11 13:44:00,53.3,46.0,29.80,West,259,5.0,10.0,76,0.00,,,0.00,weatherlink.com 1.10,2013-05-11 17:44:00,
2013-05-11 13:59:00,54.6,48.0,29.80,SW,230,4.0,10.0,77,0.00,,,0.00,weatherlink.com 1.10,2013-05-11 17:59:00,
2013-05-11 14:14:00,57.2,46.0,29.79,WSW,254,6.0,10.0,67,0.00,,,0.00,weatherlink.com 1.10,2013-05-11 18:14:00,
2013-05-11 14:29:00,55.3,45.0,29.79,SSW,207,11.0,16.0,69,0.00,,,0.00,weatherlink.com 1.10,2013-05-11 18:29:00,
2013-05-11 14:44:00,57.5,47.0,29.79,SW,228,2.0,14.0,68,0.00,,,0.00,weatherlink.com 1.10,2013-05-11 18:44:00,
2013-05-11 14:59:00,57.1,46.0,29.78,SW,234,8.0,12.0,67,0.00,,,0.00,weatherlink.com 1.10,2013-05-11 18:59:00,
2013-05-11 15:14:00,57.6,45.0,29.77,SSW,198,8.0,13.0,64,0.00,,,0.00,weatherlink.com 1.10,2013-05-11 19:14:00,
2013-05-11 15:29:00,58.6,46.0,29.76,WSW,246,6.0,16.0,63,0.00,,,0.00,weatherlink.com 1.10,2013-05-11 19:29:00,
2013-05-11 15:45:00,59.1,45.0,29.76,West,269,7.0,14.0,61,0.00,,,0.00,weatherlink.com 1.10,2013-05-11 19:45:00,
2013-05-11 16:00:00,59.6,45.0,29.75,SW,225,10.0,17.0,59,0.00,,,0.00,weatherlink.com 1.10,2013-05-11 20:00:00,
2013-05-11 16:15:00,59.9,46.0,29.74,West,275,6.0,22.0,60,0.00,,,0.00,weatherlink.com 1.10,2013-05-11 20:15:00,
2013-05-11 16:30:00,60.2,46.0,29.74,SSW,213,10.0,21.0,60,0.00,,,0.00,weatherlink.com 1.10,2013-05-11 20:30:00,
2013-05-11 16:45:00,59.2,46.0,29.74,WSW,250,6.0,21.0,62,0.00,,,0.00,weatherlink.com 1.10,2013-05-11 20:45:00,
2013-05-11 17:00:00,57.5,45.0,29.75,WSW,246,4.0,24.0,64,0.00,,,0.00,weatherlink.com 1.10,2013-05-11 21:00:00,
2013-05-11 17:15:00,54.9,47.0,29.76,West,267,11.0,13.0,76,0.00,,,0.00,weatherlink.com 1.10,2013-05-11 21:15:00,
2013-05-11 17:30:00,54.1,47.0,29.76,WNW,302,5.0,13.0,76,0.00,,,0.00,weatherlink.com 1.10,2013-05-11 21:30:00,
2013-05-11 17:45:00,54.1,47.0,29.76,West,275,5.0,14.0,76,0.00,,,0.00,weatherlink.com 1.10,2013-05-11 21:45:00,
2013-05-11 18:00:00,53.9,47.0,29.77,West,271,3.0,10.0,78,0.00,,,0.00,weatherlink.com 1.10,2013-05-11 22:00:00,
2013-05-11 18:15:00,52.9,48.0,29.77,WNW,295,4.0,14.0,82,0.00,,,0.00,weatherlink.com 1.10,2013-05-11 22:15:00,
2013-05-11 18:30:00,51.4,48.0,29.78,West,271,9.0,18.0,88,0.01,,,0.01,weatherlink.com 1.10,2013-05-11 22:30:00,
2013-05-11 18:45:00,49.6,46.0,29.79,WNW,292,8.0,17.0,88,0.02,,,0.02,weatherlink.com 1.10,2013-05-11 22:45:00,
2013-05-11 19:00:00,48.5,44.0,29.80,West,277,13.0,19.0,85,0.02,,,0.02,weatherlink.com 1.10,2013-05-11 23:00:00,
2013-05-11 19:15:00,47.0,42.0,29.81,NW,309,11.0,22.0,82,0.02,,,0.02,weatherlink.com 1.10,2013-05-11 23:15:00,
2013-05-11 19:30:00,46.4,41.0,29.82,WNW,283,6.0,17.0,81,0.01,,,0.02,weatherlink.com 1.10,2013-05-11 23:30:00,
2013-05-11 19:45:00,46.0,40.0,29.84,NNW,327,15.0,18.0,78,0.00,,,0.02,weatherlink.com 1.10,2013-05-11 23:45:00,
2013-05-11 20:00:00,45.7,39.0,29.85,NW,319,9.0,22.0,77,0.00,,,0.02,weatherlink.com 1.10,2013-05-12 00:00:00,
2013-05-11 20:15:00,44.5,38.0,29.86,NW,325,8.0,18.0,78,0.00,,,0.02,weatherlink.com 1.10,2013-05-12 00:15:00,
2013-05-11 20:30:00,43.5,36.0,29.87,NW,308,9.0,23.0,76,0.00,,,0.02,weatherlink.com 1.10,2013-05-12 00:30:00,
2013-05-11 20:44:00,42.9,36.0,29.87,NE,46,7.0,16.0,78,0.00,,,0.02,weatherlink.com 1.10,2013-05-12 00:44:00,
2013-05-11 21:00:00,42.5,35.0,29.87,NNW,327,2.0,13.0,76,0.00,,,0.02,weatherlink.com 1.10,2013-05-12 01:00:00,
2013-05-11 21:15:00,41.8,35.0,29.88,NW,321,5.0,11.0,76,0.00,,,0.02,weatherlink.com 1.10,2013-05-12 01:15:00,
2013-05-11 21:30:00,41.5,34.0,29.89,NW,321,3.0,16.0,75,0.00,,,0.02,weatherlink.com 1.10,2013-05-12 01:30:00,
2013-05-11 21:45:00,40.9,34.0,29.89,NNW,329,4.0,8.0,77,0.00,,,0.02,weatherlink.com 1.10,2013-05-12 01:45:00,
2013-05-11 22:00:00,40.2,34.0,29.90,NW,314,2.0,6.0,79,0.00,,,0.02,weatherlink.com 1.10,2013-05-12 02:00:00,
2013-05-11 22:15:00,40.0,34.0,29.90,NW,317,2.0,6.0,80,0.00,,,0.02,weatherlink.com 1.10,2013-05-12 02:15:00,
2013-05-11 22:30:00,39.8,34.0,29.90,NW,315,3.0,7.0,80,0.00,,,0.02,weatherlink.com 1.10,2013-05-12 02:30:00,
2013-05-11 22:45:00,39.5,34.0,29.90,NW,314,1.0,5.0,80,0.00,,,0.02,weatherlink.com 1.10,2013-05-12 02:45:00,
2013-05-11 23:00:00,39.0,34.0,29.91,NW,315,1.0,5.0,82,0.00,,,0.02,weatherlink.com 1.10,2013-05-12 03:00:00,
2013-05-11 23:15:00,38.6,34.0,29.90,NW,315,1.0,3.0,83,0.00,,,0.02,weatherlink.com 1.10,2013-05-12 03:15:00,
2013-05-11 23:30:00,38.0,34.0,29.90,NW,315,3.0,3.0,85,0.00,,,0.02,weatherlink.com 1.10,2013-05-12 03:30:00,
2013-05-11 23:45:00,37.8,34.0,29.90,NW,315,1.0,4.0,85,0.00,,,0.02,weatherlink.com 1.10,2013-05-12 03:45:00,